Home   Weather   Memphis   Past weeks

Flag for USA Past Weather in Memphis, Tennessee, USA — Yesterday and Last 2 Weeks

Now
73 °F

Passing clouds.


Feels Like: 77 °F
Forecast: 57 / 80 °F
Wind: 7 mph from Northwest

Location: Memphis International Airport

Current Time: Sep 30, 2016 at 7:02:26 PM

Latest Report: Sep 30, 2016 at 5:54 PM


Visibility: 10 mi

Pressure: 30.03 "Hg

Humidity: 50%

Dew Point: 53 °F

Location of MemphisLocation

Past Weather in Memphis — Graph

°F

Memphis Temperature Yesterday

Maximum temperature yesterday: 76 °F (at 1:54 PM)
Minimum temperature yesterday: 55 °F (at 5:54 AM)
Average temperature yesterday: 65 °F

High & Low Weather Summary for the Past Weeks

 TemperatureHumidityPressure
High97 °F (Sep 16, 3:54 PM)90% (Sep 18, 7:54 AM)30.16 "Hg (Sep 18, 7:54 AM)
Low55 °F (Sep 29, 5:54 AM)20% (Sep 27, 3:54 PM)29.85 "Hg (Sep 28, 2:54 PM)
Average78 °F61%30.02 "Hg
* Reported Sep 15 5:54 PM — Sep 30 5:54 PM, Memphis, Weather by CustomWeather, © 2016

Note: Actual official high and low records may vary slightly from our data, if they occured in-between our weather recording intervals... More about our weather records

Advertising

Memphis Weather History for the Previous 24 Hours

Scroll right to see more
 ConditionsComfort  
Time TempWeatherWind HumidityBarometerVisibility
5:54 PM
Fri, Sep 30
73 °FPassing clouds.7 mph50%30.03 "Hg10 mi
4:54 PM75 °FScattered clouds.3 mph47%30.04 "Hg10 mi
3:54 PM75 °FScattered clouds.9 mph48%30.04 "Hg10 mi
2:54 PM74 °FPartly sunny.8 mph52%30.04 "Hg10 mi
1:54 PM76 °FPartly sunny.5 mph48%30.06 "Hg10 mi
12:54 PM75 °FBroken clouds.8 mph48%30.09 "Hg10 mi
11:54 AM73 °FPartly sunny.7 mph53%30.11 "Hg10 mi
11:01 AM70 °FBroken clouds.6 mph60%30.13 "Hg10 mi
9:54 AM68 °FScattered clouds.6 mph68%30.11 "Hg10 mi
8:54 AM64 °FPartly sunny.10 mph78%30.11 "Hg10 mi
7:54 AM63 °FScattered clouds.5 mph81%30.10 "Hg10 mi
6:54 AM62 °FBroken clouds.7 mph83%30.09 "Hg10 mi
5:54 AM63 °FOvercast.7 mph78%30.09 "Hg9 mi
4:54 AM62 °FMostly cloudy.3 mph80%30.08 "Hg10 mi
3:54 AM62 °FOvercast.No wind78%30.09 "Hg10 mi
2:54 AM62 °FOvercast.3 mph80%30.10 "Hg10 mi
1:54 AM62 °FPassing clouds.3 mph78%30.10 "Hg10 mi
12:54 AM63 °FPassing clouds.5 mph73%30.10 "Hg10 mi
11:54 PM
Thu, Sep 29
63 °FPassing clouds.3 mph70%30.13 "Hg10 mi
10:54 PM64 °FPassing clouds.5 mph68%30.14 "Hg10 mi
9:54 PM66 °FPassing clouds.6 mph63%30.14 "Hg10 mi
8:54 PM65 °FPassing clouds.3 mph66%30.15 "Hg10 mi
7:54 PM67 °FPassing clouds.9 mph61%30.14 "Hg10 mi
Weather by CustomWeather, © 2016

See weather overviewHow to use our weather pages